Saint Cloud, MN

7:12 AM CST on February 08, 2016 (GMT -0600)
Saint Cloud Regional

Weather History for KSTC - May, 2013

Change the Weather History Date:

Sunday, May 12, 2013

  Actual Average Record
Temperature  
Mean Temperature 44 °F 55 °F  
Max Temperature 59 °F 68 °F 95 °F (1900)
Min Temperature 28 °F 43 °F 21 °F (1946)
Degree Days  
Heating Degree Days 21 10  
Month to date heating degree days 213 142  
Since 1 July heating degree days 8667 8309  
Cooling Degree Days 0 1  
Month to date cooling degree days 0 4  
Year to date cooling degree days 0 6  
Moisture  
Dew Point 18 °F    
Average Humidity 42    
Maximum Humidity 69    
Minimum Humidity 15    
Precipitation  
Precipitation 0.00 in 0.09 in 1.31 in (1999)
Month to date precipitation 0.35 1.14  
Year to date precipitation 7.66 6.50  
Snow  
Snow 0.00 in 0.00 in T in (1953)
Month to date snowfall 0.0 0.0  
Since 1 July snowfall 78.5 45.7  
Snow Depth 0.00 in    
Sea Level Pressure  
Sea Level Pressure 30.21 in    
Wind  
Wind Speed 7 mph (NNW)    
Max Wind Speed 18 mph    
Max Gust Speed 26 mph    
Visibility 10 miles    
Events      
T = Trace of Precipitation, MM = Missing Value Source: NWS Daily Summary

Daily Weather History Graph

Daily Weather History Graph

Search for Another Location

Airport or City:

Trip Planner

Search our weather history database for the weather conditions in past years. The results will help you decide how hot, cold, wet, or windy it might be!

Date:

Astronomy

May. 12, 2013 Rise Set
Actual Time 5:48 AM CDT 8:37 PM CDT
Civil Twilight 5:14 AM CDT 9:11 PM CDT
Nautical Twilight 4:30 AM CDT 9:55 PM CDT
Astronomical Twilight 3:40 AM CDT 10:46 PM CDT
Moon 7:42 AM CDT (5/12) 11:06 PM CDT (5/12)
Length of Visible Light 15h 57m
Length of Day
14h 48m
Waxing Crescent, 7% of the Moon is Illuminated
May 12
Waxing Crescent
May 17
First Quarter
May 24
Full
May 31
Last Quarter
Jun 8
New

Hourly Weather History & Observations

Time (CDT) Temp. Windchill Dew Point Humidity Pressure Visibility Wind Dir Wind Speed Gust Speed Precip Events Conditions
12:53 AM 33.1 °F 28.7 °F 21.9 °F 64% 30.26 in 10.0 mi NNW 4.6 mph - N/A   Clear
1:53 AM 33.1 °F 30.0 °F 21.0 °F 61% 30.27 in 10.0 mi NNW 3.5 mph - N/A   Clear
2:53 AM 30.9 °F 27.5 °F 21.0 °F 67% 30.26 in 10.0 mi NW 3.5 mph - N/A   Clear
3:53 AM 30.9 °F 27.5 °F 21.0 °F 67% 30.25 in 10.0 mi NW 3.5 mph - N/A   Clear
4:53 AM 30.0 °F 26.5 °F 21.0 °F 69% 30.25 in 10.0 mi NNW 3.5 mph - N/A   Clear
5:53 AM 28.9 °F 23.9 °F 19.9 °F 69% 30.26 in 10.0 mi NW 4.6 mph - N/A   Clear
6:53 AM 32.0 °F 28.7 °F 21.9 °F 66% 30.27 in 10.0 mi NNW 3.5 mph - N/A   Clear
7:53 AM 37.0 °F 31.6 °F 23.0 °F 57% 30.28 in 10.0 mi NNW 6.9 mph - N/A   Clear
8:53 AM 41.0 °F 35.8 °F 21.0 °F 45% 30.28 in 10.0 mi North 8.1 mph - N/A   Clear
9:53 AM 44.1 °F 39.0 °F 21.0 °F 40% 30.27 in 10.0 mi NW 9.2 mph - N/A   Clear
10:53 AM 46.0 °F 40.2 °F 18.0 °F 33% 30.26 in 10.0 mi North 12.7 mph 18.4 mph N/A   Clear
11:53 AM 48.9 °F - 17.1 °F 28% 30.25 in 10.0 mi NNW 11.5 mph 17.3 mph N/A   Clear
12:53 PM 51.1 °F - 14.0 °F 23% 30.23 in 10.0 mi NNW 9.2 mph 25.3 mph N/A   Clear
1:53 PM 53.1 °F - 14.0 °F 21% 30.21 in 10.0 mi WNW 9.2 mph 19.6 mph N/A   Clear
2:53 PM 55.0 °F - 12.9 °F 19% 30.19 in 10.0 mi NNW 9.2 mph 18.4 mph N/A   Clear
3:53 PM 57.9 °F - 12.9 °F 17% 30.17 in 10.0 mi NW 15.0 mph 26.5 mph N/A   Clear
4:53 PM 57.0 °F - 10.9 °F 16% 30.15 in 10.0 mi NNW 10.4 mph - N/A   Clear
5:53 PM 57.0 °F - 12.0 °F 17% 30.15 in 10.0 mi NNW 11.5 mph 19.6 mph N/A   Clear
6:53 PM 57.0 °F - 16.0 °F 20% 30.13 in 10.0 mi NW 10.4 mph - N/A   Clear
7:53 PM 54.0 °F - 19.9 °F 26% 30.13 in 10.0 mi NW 9.2 mph - N/A   Clear
8:53 PM 48.9 °F - 19.9 °F 32% 30.14 in 10.0 mi WNW 5.8 mph - N/A   Clear
9:53 PM 44.1 °F 40.1 °F 21.0 °F 40% 30.15 in 10.0 mi NE 6.9 mph - N/A   Clear
10:53 PM 45.0 °F 43.5 °F 18.0 °F 34% 30.14 in 10.0 mi East 3.5 mph - N/A   Clear
11:53 PM 43.0 °F 41.3 °F 17.1 °F 35% 30.14 in 10.0 mi East 3.5 mph - N/A   Clear